sat.trackr.live / text

‹ back to catalog

STARLINK-37061

NORAD 68185 · 2026-050U

PAYLOAD ACTIVE UNKNOWN

§ Identity

Operator
Country
US
Launch date
2026-03-14
Launch site
AFETR
Launch vehicle
Mass (kg)
RCS (m²)

Purposes: comms

External: N2YO · Heavens-Above · Gunter

§ Orbital elements

Epoch: 2026-05-25T00:00:02.000160Z

Period
93.85 min
Inclination
53.1591°
Eccentricity
0.0001191
Mean motion
15.34398969 rev/d
Perigee alt
461.9 km
Apogee alt
463.5 km
Semi-major
6,840.8 km
B*
-6.0513e-4
RAAN
271.3547°
Arg perigee
74.2410°
Mean anomaly
149.0048°
Rev number
591

§ Raw data

STARLINK-370611 68185U 26050U   26145.00002315 -.00020765  00000+0 -60513-3 0  99992 68185  53.1591 271.3547 0001191  74.2410 149.0048 15.34398969  5911

JSON: /api/v1/satellites/68185 · /tle

For live sub-satellite position, see the globe view (requires WebGL).

§ Visibility from observer

Set your observer location to see the next 7 days of passes ≥ 10°. The values pass through the URL so the page stays shareable.

No JS? Fill the form by hand. The geolocation button needs JavaScript.